Location: Newark
(45.5000°N, 11.4167°E)
Time: 21:00:04
(UTC+00:00)

Vanguard 2 - Pass Details

Date: 31 August 2019
Orbit: 554 x 2937 km, 32.9° (Epoch: 15 September)

Event Time Altitude Azimuth Distance (km) Brightness Sun altitude
Rises 09:56:40 0° 226° (SW) 2,743 10.5 49.5°
Reaches altitude 10° 09:59:25 10° 203° (SSW) 1,950 10.1 49.8°
Maximum altitude 10:02:11 16° 163° (SSE) 1,723 10.4 50.0°
Drops below altitude 10° 10:05:28 10° 124° (SE) 2,384 10.8 50.3°
Sets 10:09:24 0° 106° (ESE) 3,709 11.4 50.6°
